Deer Park, WA
on Wednesday, November 28, 2012

Wednesday
Previous Day Next Day
Daily Summary
 ActualAverageRecord
Temperature
Mean Temperature °F / °C 29°F / -2°C  
Max Temperature 40°F / 4°C 36°F / 2°C 43°F / 6°C (1999)
Min Temperature 29°F / -2°C 23°F / -5°C 3°F / -16°C (2006)
Degree Days
Heating Degree Days 30 36  
Month to date heating degree days 774 864  
Since 1 July heating degree days 1686 1932  
Cooling Degree Days 0 0  
Month to date cooling degree days 0 0  
Year to date cooling degree days 232 187  
Moisture
Dew Point 30°F / -1°C   
Average Humidity 82    
Maximum Humidity 100    
Minimum Humidity 64    
Precipitation
Precipitation 0.12 in / 3.05 cm 0.12 in / 3.05 cm 0.86 in / 2.18 cm (2001)
Month to date precipitation 3.67 3.08  
Year to date precipitation 23.67 19.14  
Wind
Wind Speed 6 mph / 9 km/h   
Max Wind Speed 15 mph / 24 km/h   
Max Gust Speed 21 mph / 34 km/h   
Visibility 10 miles / 16 kilometers   
Events Rain   

Key: T is trace of precipitation, MM is missing value
Source: NWS Daily Summary
Time(PST)TemperatureDew PointHumidity Pressure Visibility Wind DirectionWind SpeedGust SpeedPrecipitationEvents Conditions
12:53 AM 30.9°F / -0.6°C 27.0°F / -2.8°C 85% 30.14 in / 1020.4 hPa 10.0 miles / 16.1 kilometers NNW 3.5 mph / 5.6 km/h - N/A   Clear
1:53 AM 30.0°F / -1.1°C 27.0°F / -2.8°C 88% 30.12 in / 1020.0 hPa 10.0 miles / 16.1 kilometers North 4.6 mph / 7.4 km/h - N/A   Clear
2:53 AM 28.9°F / -1.7°C 26.1°F / -3.3°C 89% 30.11 in / 1019.6 hPa 10.0 miles / 16.1 kilometers North 4.6 mph / 7.4 km/h - N/A   Clear
3:53 AM 32.0°F / 0.0°C 28.0°F / -2.2°C 85% 30.10 in / 1019.1 hPa 10.0 miles / 16.1 kilometers NNE 3.5 mph / 5.6 km/h - N/A   Clear
4:53 AM 30.9°F / -0.6°C 27.0°F / -2.8°C 85% 30.09 in / 1018.7 hPa 10.0 miles / 16.1 kilometers North 6.9 mph / 11.1 km/h - N/A   Clear
5:53 AM 30.9°F / -0.6°C 27.0°F / -2.8°C 85% 30.07 in / 1018.2 hPa 10.0 miles / 16.1 kilometers NNE 8.1 mph / 13.0 km/h - N/A   Clear
6:53 AM 30.0°F / -1.1°C 27.0°F / -2.8°C 88% 30.06 in / 1018.0 hPa 10.0 miles / 16.1 kilometers NNE 6.9 mph / 11.1 km/h - N/A   Clear
7:53 AM 32.0°F / 0.0°C 28.0°F / -2.2°C 85% 30.05 in / 1017.6 hPa 10.0 miles / 16.1 kilometers NNE 8.1 mph / 13.0 km/h - N/A   Clear
8:53 AM 34.0°F / 1.1°C 28.0°F / -2.2°C 79% 30.03 in / 1016.9 hPa 10.0 miles / 16.1 kilometers NNE 10.4 mph / 16.7 km/h - N/A   Clear
9:53 AM 37.0°F / 2.8°C 28.9°F / -1.7°C 73% 30.01 in / 1016.1 hPa 10.0 miles / 16.1 kilometers NNE 11.5 mph / 18.5 km/h - N/A   Clear
10:53 AM 39.0°F / 3.9°C 28.9°F / -1.7°C 67% 29.98 in / 1015.0 hPa 10.0 miles / 16.1 kilometers NNE 9.2 mph / 14.8 km/h - N/A   Clear
11:53 AM 39.0°F / 3.9°C 30.0°F / -1.1°C 70% 29.94 in / 1013.7 hPa 10.0 miles / 16.1 kilometers NNE 9.2 mph / 14.8 km/h - N/A   Clear
12:53 PM 39.0°F / 3.9°C 30.0°F / -1.1°C 70% 29.92 in / 1013.0 hPa 10.0 miles / 16.1 kilometers NNE 5.8 mph / 9.3 km/h - N/A   Clear
1:53 PM 39.0°F / 3.9°C 30.0°F / -1.1°C 70% 29.88 in / 1011.8 hPa 10.0 miles / 16.1 kilometers NNE 5.8 mph / 9.3 km/h - N/A   Partly Cloudy
2:53 PM 37.9°F / 3.3°C 30.0°F / -1.1°C 73% 29.88 in / 1011.7 hPa 10.0 miles / 16.1 kilometers NNE 4.6 mph / 7.4 km/h - N/A   Mostly Cloudy
3:53 PM 37.0°F / 2.8°C 30.0°F / -1.1°C 76% 29.85 in / 1010.8 hPa 10.0 miles / 16.1 kilometers WSW 6.9 mph / 11.1 km/h - N/A   Mostly Cloudy
4:53 PM 36.0°F / 2.2°C 28.9°F / -1.7°C 76% 29.86 in / 1010.9 hPa 10.0 miles / 16.1 kilometers North 3.5 mph / 5.6 km/h - N/A   Overcast
5:53 PM 36.0°F / 2.2°C 30.9°F / -0.6°C 82% 29.88 in / 1011.6 hPa 10.0 miles / 16.1 kilometers Calm Calm - N/A   Overcast
6:53 PM 34.0°F / 1.1°C 33.1°F / 0.6°C 96% 29.88 in / 1011.8 hPa 6.0 miles / 9.7 kilometers NE 4.6 mph / 7.4 km/h - 0.01 in / 0.3 cm Rain Light Rain
7:53 PM 34.0°F / 1.1°C 33.1°F / 0.6°C 96% 29.88 in / 1011.7 hPa 7.0 miles / 11.3 kilometers NNE 5.8 mph / 9.3 km/h - 0.06 in / 1.5 cm Rain Light Rain
8:53 PM 35.1°F / 1.7°C 34.0°F / 1.1°C 96% 29.87 in / 1011.5 hPa 9.0 miles / 14.5 kilometers North 4.6 mph / 7.4 km/h - 0.03 in / 0.8 cm   Overcast
9:53 PM 35.1°F / 1.7°C 34.0°F / 1.1°C 96% 29.88 in / 1011.7 hPa 10.0 miles / 16.1 kilometers North 4.6 mph / 7.4 km/h - 0.02 in / 0.5 cm   Overcast
10:53 PM 35.1°F / 1.7°C 34.0°F / 1.1°C 96% 29.88 in / 1011.8 hPa 10.0 miles / 16.1 kilometers Calm Calm - 0.00 in / 0.0 cm   Overcast
11:53 PM 34.0°F / 1.1°C 33.1°F / 0.6°C 96% 29.89 in / 1012.0 hPa 10.0 miles / 16.1 kilometers Calm Calm - N/A   Overcast
Moon Phase
Nov. 28 Dec. 06 Dec. 13 Dec. 20 Dec. 28
Sunrise:07:15 AM (PST) Moon Rise:04:18 PM (PST)11/28
Sunset:04:00 PM (PST) Moon Set:07:16 AM (PST)11/28

Copyright © 2014 The Weather Underground, Inc.